[[{"header":{"parameterUnit":"m.s-1","parameterCategory":1,"la1":30.2991,"la2":30.254,"lo1":-89.0895,"lo2":-89.0444,"dy":0.0017,"dx":0.0017,"nx":28,"ny":28,"refTime":"2025-03-15T21:00:00:Z","depth":0,"parameterNumber":2,"parameterNumberName":"U-component_of_WINDS"},"data":[0,0,0,0,0,0,0,0,0,0,0,0,0,0,0,0,0,0,0,0,0,0,0,0,0,0,0,0,0,0,0,0,0,0,0,0,0,0,0,0,0,0,0,0,0,0,0,0,0,0,0,0,0,0,0,0,0,0,1.4024,1.4024,0,1.4023,1.4023,1.4023,1.4018,1.4018,1.4017,1.4017,1.4016,1.4016,1.4016,0,0,0,0,0,0,0,0,0,0,0,0,0,1.4019,1.4019,1.4024,1.4024,1.4024,1.4023,1.4023,1.4023,1.4018,1.4018,1.4017,1.4017,1.4016,1.4016,1.4016,0,0,0,0,0,0,0,0,0,0,0,0,0,1.402,1.4019,1.4024,1.4021,1.4021,1.4023,1.4023,1.4023,1.4018,1.4018,1.4017,1.4017,1.4016,1.4016,1.4016,1.4022,0,0,1.4017,1.4017,0,0,0,0,0,0,0,0,1.402,1.402,1.4021,1.4021,1.4021,1.402,1.4021,1.4023,1.4018,1.4019,1.4017,1.4017,1.4018,1.4018,1.4018,1.4022,1.4022,1.4017,1.4017,1.4017,1.4017,0,0,0,0,0,0,0,1.402,1.402,1.4023,1.4021,1.4021,1.4019,1.4019,1.4022,1.4019,1.4019,1.4018,1.4018,1.4018,1.4018,1.4018,1.4022,1.4017,1.4017,1.4017,1.4017,1.403,1.403,0,0,0,0,0,0,1.402,1.402,1.4023,1.4023,1.402,1.402,1.402,1.4021,1.4019,1.4019,1.4019,1.4018,1.4018,1.4018,1.4018,1.4024,1.4017,1.4017,1.4017,1.403,1.403,1.403,0,0,0,0,0,0,1.402,1.4021,1.4023,1.4022,1.4022,1.402,1.4021,1.4021,1.4021,1.4019,1.4019,1.4019,1.4018,1.4018,1.4021,1.4024,1.4017,1.4018,1.4029,1.403,1.403,1.4036,0,0,0,0,0,0,1.402,1.4021,1.4023,1.4022,1.4022,1.4027,1.4021,1.4021,1.4022,1.4021,1.402,1.402,1.4018,1.4021,1.4021,1.4024,1.4018,1.4029,1.403,1.403,1.4036,1.4037,1.4038,0,0,0,0,0,1.402,1.4024,1.4023,1.4023,1.4025,1.4027,1.4027,1.4025,1.4022,1.4024,1.4023,1.402,1.4024,1.4021,1.4022,1.4025,1.4029,1.4029,1.403,1.4035,1.4037,1.4038,0,0,0,0,0,0,1.4025,1.4024,1.4022,1.4026,1.4027,1.4026,1.4028,1.4026,1.4027,1.4026,1.4023,1.4023,1.4027,1.4026,1.4023,1.403,1.4026,1.4027,1.403,1.4031,1.4032,1.4032,1.4018,0,0,0,0,0,1.4027,1.4028,1.4028,1.4031,1.4032,1.403,1.4031,1.4029,1.4029,1.4029,1.4028,1.4028,1.403,1.403,1.4032,1.4036,1.4036,1.4038,1.4039,1.404,1.4041,1.4043,1.4044,1.4032,1.4032,1.4032,0,0,1.403,1.4029,1.4031,1.4032,1.4032,1.4034,1.403,1.4032,1.4034,1.4029,1.4032,1.4032,1.4032,1.4036,1.4037,1.4035,1.4044,1.4041,1.4042,1.4041,1.4044,1.4045,1.4046,1.4032,1.4032,1.4032,0,0,1.4036,1.4037,1.404,1.404,1.404,1.4039,1.404,1.404,1.4039,1.4042,1.4039,1.4041,1.4043,1.4044,1.4044,1.4052,1.4049,1.4052,1.4057,1.4059,1.406,1.4061,1.4064,1.4065,1.4053,1.4053,1.4053,0,1.404,1.4043,1.4041,1.4044,1.4045,1.4042,1.4045,1.4045,1.4046,1.4046,1.4044,1.4048,1.4047,1.4051,1.4053,1.4054,1.4055,1.4052,1.4061,1.4061,1.4062,1.4064,1.4065,1.4053,1.4053,1.4053,1.4053,0,1.4048,1.405,1.4053,1.4054,1.4055,1.4058,1.4056,1.4058,1.4056,1.4056,1.4059,1.4059,1.406,1.4061,1.4059,1.4065,1.4063,1.4061,1.4057,1.4064,1.4066,1.4067,1.4054,1.4054,1.4054,1.4053,0,0,1.4056,1.4057,1.4058,1.4059,1.4059,1.4061,1.4064,1.4066,1.4067,1.4068,1.407,1.4072,1.407,1.4071,1.4069,1.4072,1.4078,1.4069,1.4069,1.407,1.4084,1.4085,1.4086,1.4076,1.4076,1.4077,1.4084,0,1.4063,1.4068,1.4067,1.4072,1.4074,1.4071,1.4074,1.4075,1.4074,1.4076,1.4076,1.4077,1.4075,1.4075,1.4077,1.4076,1.408,1.4076,1.4078,1.4078,1.4077,1.4087,1.4089,1.4095,1.4084,1.4085,1.4085,0,1.4071,1.4072,1.4077,1.4078,1.4079,1.4081,1.4083,1.4084,1.4085,1.4085,1.4086,1.4084,1.4087,1.4084,1.4088,1.4085,1.4086,1.4086,1.4086,1.4085,1.4081,1.4087,1.4097,1.4098,1.4086,1.4086,1.4086,0,1.4076,1.408,1.4083,1.4084,1.4085,1.4086,1.4087,1.4088,1.4089,1.409,1.4091,1.4093,1.4093,1.4095,1.4094,1.4091,1.4098,1.4094,1.4097,1.4097,1.4098,1.4098,1.4108,1.41,1.41,1.41,1.41,0,1.4083,1.4086,1.4086,1.4088,1.4091,1.409,1.4094,1.4094,1.4095,1.4097,1.4095,1.4097,1.4096,1.4098,1.4097,1.4101,1.4101,1.4101,1.41,1.41,1.41,1.41,1.41,1.41,1.41,1.41,1.41,0,1.4089,1.4089,1.4093,1.4094,1.4094,1.4097,1.4097,1.41,1.41,1.4102,1.4103,1.4103,1.4105,1.4104,1.4106,1.4106,1.411,1.4109,1.411,1.4109,1.4112,1.4112,1.4123,1.4124,1.4115,1.4115,1.4115,0,1.4093,1.4096,1.4097,1.4099,1.4099,1.4102,1.4103,1.4102,1.4104,1.4105,1.4107,1.411,1.4111,1.4115,1.4115,1.4117,1.4116,1.4119,1.4116,1.4116,1.4115,1.4115,1.4115,1.412,1.412,1.412,1.412,0,1.41,1.41,1.4102,1.4105,1.4106,1.4108,1.4109,1.4111,1.411,1.4112,1.4115,1.4116,1.4119,1.4121,1.4123,1.4123,1.4121,1.4121,1.4122,1.4122,1.4122,1.4122,1.4111,1.4121,1.4121,1.4121,1.4121,1.4121,1.4105,1.4107,1.4109,1.4111,1.4113,1.4114,1.4116,1.4117,1.4119,1.4121,1.4121,1.4124,1.4125,1.4127,1.4128,1.413,1.4129,1.413,1.413,1.413,1.413,1.4122,1.4131,1.4131,1.4131,1.4131,1.4131,0,1.4112,1.4113,1.4115,1.4118,1.412,1.4119,1.4121,1.4122,1.4125,1.4126,1.4128,1.4131,1.4134,1.4134,1.4136,1.4138,1.4137,1.4138,1.4138,1.4138,1.4132,1.4131,1.4139,1.4139,1.4139,1.4139,1.4139,1.4139,1.4116,1.4119,1.412,1.4124,1.4125,1.4128,1.4129,1.413,1.4132,1.4135,1.4137,1.4138,1.4139,1.4141,1.4143,1.4143,1.4144,1.4146,1.4145,1.4139,1.4138,1.4138,1.4137,1.4146,1.4146,1.4151,1.4151,1.4151]},{"header":{"parameterUnit":"m.s-1","parameterCategory":1,"la1":30.2991,"la2":30.254,"lo1":-89.0895,"lo2":-89.0444,"dy":0.0017,"dx":0.0017,"nx":28,"ny":28,"refTime":"2025-03-15T21:00:00:Z","depth":0,"parameterNumber":3,"parameterNumberName":"V-component_of_WINDS"},"data":[0,0,0,0,0,0,0,0,0,0,0,0,0,0,0,0,0,0,0,0,0,0,0,0,0,0,0,0,0,0,0,0,0,0,0,0,0,0,0,0,0,0,0,0,0,0,0,0,0,0,0,0,0,0,0,0,0,0,-4.6439,-4.6441,0,-4.6666,-4.6669,-4.6671,-4.6635,-4.6631,-4.6627,-4.6624,-4.6856,-4.6865,-4.6875,0,0,0,0,0,0,0,0,0,0,0,0,0,-4.5972,-4.5981,-4.6438,-4.6441,-4.6444,-4.6666,-4.6669,-4.6672,-4.6636,-4.6631,-4.6626,-4.6622,-4.6853,-4.6864,-4.6876,0,0,0,0,0,0,0,0,0,0,0,0,0,-4.6185,-4.5984,-4.6438,-4.6453,-4.6456,-4.6665,-4.6669,-4.6673,-4.6637,-4.6631,-4.6625,-4.662,-4.6849,-4.6863,-4.6878,-4.7086,0,0,-4.6923,-4.6929,0,0,0,0,0,0,0,0,-4.6173,-4.6202,-4.6448,-4.6452,-4.6457,-4.6616,-4.659,-4.6811,-4.6638,-4.6568,-4.6624,-4.6617,-4.6781,-4.6801,-4.6856,-4.7097,-4.7107,-4.6924,-4.6933,-4.6939,-4.6943,0,0,0,0,0,0,0,-4.6158,-4.6192,-4.6528,-4.6451,-4.6457,-4.6448,-4.6472,-4.6631,-4.6705,-4.6574,-4.6572,-4.6599,-4.6782,-4.6842,-4.6862,-4.711,-4.6924,-4.6937,-4.6946,-4.6952,-4.7534,-4.754,0,0,0,0,0,0,-4.6139,-4.618,-4.6521,-4.6535,-4.6297,-4.6461,-4.6488,-4.6571,-4.6703,-4.6717,-4.6604,-4.6597,-4.682,-4.6844,-4.687,-4.7123,-4.6939,-4.6953,-4.6961,-4.7527,-4.7535,-4.7542,0,0,0,0,0,0,-4.6129,-4.617,-4.6512,-4.6357,-4.64,-4.6475,-4.6569,-4.6579,-4.6639,-4.6726,-4.6738,-4.6652,-4.6816,-4.6849,-4.7033,-4.7131,-4.696,-4.6973,-4.7519,-4.753,-4.7539,-4.7631,0,0,0,0,0,0,-4.6116,-4.6167,-4.6246,-4.6359,-4.6408,-4.6672,-4.6575,-4.6587,-4.6664,-4.6657,-4.6774,-4.6788,-4.6814,-4.7011,-4.7047,-4.7148,-4.6984,-4.7511,-4.7524,-4.7536,-4.762,-4.7643,-4.7663,0,0,0,0,0,-4.6099,-4.6263,-4.6251,-4.6292,-4.651,-4.6678,-4.6706,-4.6733,-4.6672,-4.6753,-4.6809,-4.6784,-4.7114,-4.703,-4.7071,-4.7177,-4.7505,-4.752,-4.7535,-4.761,-4.7639,-4.7663,0,0,0,0,0,0,-4.6159,-4.6278,-4.6266,-4.6471,-4.6564,-4.6671,-4.6774,-4.6762,-4.6875,-4.6863,-4.6892,-4.6918,-4.7105,-4.7159,-4.7064,-4.7386,-4.7301,-4.7325,-4.7344,-4.7372,-4.7393,-4.7377,-4.6997,0,0,0,0,0,-4.6196,-4.6323,-4.6419,-4.6591,-4.6639,-4.6699,-4.6772,-4.6785,-4.6883,-4.6923,-4.6992,-4.7088,-4.7213,-4.7295,-4.7415,-4.7627,-4.7653,-4.772,-4.7742,-4.7759,-4.778,-4.7897,-4.7929,-4.7591,-4.7591,-4.7591,0,0,-4.6274,-4.6355,-4.6433,-4.6605,-4.6679,-4.681,-4.6732,-4.6873,-4.697,-4.6944,-4.7123,-4.7177,-4.7286,-4.7485,-4.7576,-4.7536,-4.7878,-4.7778,-4.7791,-4.7803,-4.7916,-4.7948,-4.7976,-4.7601,-4.76,-4.7598,0,0,-4.6483,-4.6556,-4.6708,-4.6784,-4.6898,-4.6936,-4.6973,-4.7082,-4.7117,-4.7297,-4.728,-4.7396,-4.7611,-4.769,-4.7758,-4.7997,-4.7979,-4.8035,-4.8149,-4.8263,-4.829,-4.8313,-4.84,-4.8431,-4.8055,-4.8056,-4.8056,0,-4.6566,-4.6762,-4.6787,-4.6931,-4.7008,-4.699,-4.7144,-4.7217,-4.7363,-4.7417,-4.7369,-4.764,-4.7712,-4.793,-4.7988,-4.8043,-4.8086,-4.8023,-4.8284,-4.8308,-4.833,-4.8414,-4.8446,-4.8062,-4.8061,-4.806,-4.806,0,-4.6859,-4.6995,-4.7104,-4.7247,-4.7335,-4.7483,-4.7531,-4.7618,-4.7623,-4.7667,-4.785,-4.7936,-4.8074,-4.8126,-4.8132,-4.8346,-4.8318,-4.8277,-4.8192,-4.8368,-4.8447,-4.8479,-4.8071,-4.8068,-4.8067,-4.8065,0,0,-4.7113,-4.7268,-4.7308,-4.7373,-4.7497,-4.7603,-4.775,-4.7885,-4.796,-4.8061,-4.8186,-4.8369,-4.8332,-4.841,-4.8424,-4.8524,-4.871,-4.8471,-4.8474,-4.8514,-4.8952,-4.8984,-4.902,-4.8698,-4.8704,-4.8709,-4.8944,0,-4.7335,-4.7596,-4.7623,-4.7856,-4.7983,-4.7968,-4.8097,-4.8187,-4.8232,-4.8346,-4.8395,-4.8525,-4.8466,-4.8512,-4.861,-4.8667,-4.8799,-4.865,-4.8815,-4.8821,-4.879,-4.9061,-4.9095,-4.9312,-4.8975,-4.898,-4.8984,0,-4.7629,-4.774,-4.7986,-4.8094,-4.8148,-4.8263,-4.839,-4.8499,-4.86,-4.8626,-4.8713,-4.8715,-4.8867,-4.8775,-4.8986,-4.8884,-4.8953,-4.8991,-4.9,-4.9018,-4.8914,-4.9088,-4.9382,-4.9415,-4.9032,-4.9028,-4.9025,0,-4.7792,-4.8002,-4.8177,-4.8233,-4.8363,-4.8444,-4.8502,-4.8598,-4.8678,-4.8788,-4.884,-4.8967,-4.9036,-4.9134,-4.917,-4.91,-4.938,-4.929,-4.9406,-4.9406,-4.9467,-4.9463,-4.9778,-4.9509,-4.9508,-4.9508,-4.9507,0,-4.8038,-4.8189,-4.8253,-4.836,-4.853,-4.856,-4.8727,-4.878,-4.8866,-4.8984,-4.8978,-4.9089,-4.9129,-4.9247,-4.9276,-4.9447,-4.9477,-4.9503,-4.9509,-4.9505,-4.9502,-4.9552,-4.9538,-4.9516,-4.9514,-4.9513,-4.9511,0,-4.8249,-4.8297,-4.8487,-4.8594,-4.8624,-4.8745,-4.8837,-4.8941,-4.8984,-4.9133,-4.917,-4.9238,-4.9376,-4.9422,-4.9588,-4.9608,-4.9808,-4.98,-4.9774,-4.9775,-4.9889,-4.9879,-5.0249,-5.03,-4.9995,-4.9998,-5.0,0,-4.8404,-4.852,-4.864,-4.8719,-4.878,-4.8907,-4.8989,-4.9022,-4.9107,-4.9233,-4.9322,-4.9459,-4.9571,-4.9793,-4.9857,-4.9985,-4.9981,-5.0102,-5.0,-4.9993,-4.9985,-4.9979,-4.9991,-5.0121,-5.0125,-5.0127,-5.0129,0,-4.8674,-4.8692,-4.881,-4.8938,-4.9036,-4.9137,-4.9235,-4.93,-4.9348,-4.9444,-4.9586,-4.9673,-4.9844,-4.9981,-5.0111,-5.017,-5.0159,-5.0161,-5.0195,-5.0192,-5.0173,-5.0187,-4.9828,-5.0152,-5.015,-5.0148,-5.0147,-5.0146,-4.8863,-4.8966,-4.9067,-4.92,-4.9277,-4.9369,-4.9473,-4.9529,-4.9648,-4.979,-4.9802,-4.9956,-5.0055,-5.023,-5.0295,-5.0416,-5.0381,-5.043,-5.0443,-5.0455,-5.0465,-5.0152,-5.0439,-5.0439,-5.0438,-5.0438,-5.0437,0,-4.9135,-4.9199,-4.932,-4.9458,-4.9562,-4.9542,-4.965,-4.9738,-4.9874,-4.9967,-5.0078,-5.0241,-5.0374,-5.0449,-5.0581,-5.0664,-5.0662,-5.0698,-5.0693,-5.0707,-5.0487,-5.0445,-5.0697,-5.0697,-5.0697,-5.0697,-5.0697,-5.0697,-4.9288,-4.9463,-4.9493,-4.9706,-4.9769,-4.992,-4.9983,-5.0068,-5.0144,-5.0327,-5.0437,-5.0485,-5.0572,-5.0711,-5.0832,-5.085,-5.09,-5.094,-5.0955,-5.0749,-5.0722,-5.0697,-5.0658,-5.095,-5.0951,-5.1166,-5.1168,-5.1169]}]]